Orbital Elements at Epoch 2459200.5 (2020-Dec-17.0) TDB
Reference: JPL 31 (heliocentric ecliptic J2000)
Element | Value | Uncertainty (1-sigma) | Units |
e | .07362565747097545 | 4.7146e-08 | |
a | 3.255701218265981 | 1.8647e-08 | au |
q | 3.015998075542092 | 1.564e-07 | au |
i | 2.412366472334895 | 3.6046e-06 | deg |
node | 77.25228005589025 | 0.00012297 | deg |
peri | 137.6838223501502 | 0.00012622 | deg |
M | 18.72126348155529 | 2.804e-05 | deg |
tp | 2459088.917035685653 (2020-Aug-27.41703569) | 0.00016727 | TDB |
period | 2145.681416894829 5.87 | 1.8434e-05 5.047e-08 | d yr |
n | .1677788683657344 | 1.4414e-09 | deg/d |
Q | 3.495404360989869 | 2.0019e-08 | au |
|
| | Orbit Determination Parameters
Additional Information
|